Regional Weather Roundup
Issued by NWS Bismarck, ND

Home | Current Version | Previous Version | Text Only | Print | Product List | Glossary On
Versions: 1 2 3 4 5 6 7 8 9 10 11 12 13 14 15 16 17 18 19 20 21 22 23 24 25 26 27 28 29 30 31 32 33 34 35 36 37 38 39 40 41 42 43 44 45 46 47 48 49 50
000
ASUS43 KBIS 210210
RWRBIS

NWR BROADCAST TEXT
NATIONAL WEATHER SERVICE BISMARCK ND
900 PM CDT MON OCT 20 2014

NOTE: "FAIR" INDICATES FEW OR NO CLOUDS BELOW 12,000 FEET WITH NO
SIGNIFICANT WEATHER AND/OR OBSTRUCTIONS TO VISIBILITY.


CITY           SKY/WX    TMP DP  RH WIND       PRES   REMARKS
WILLISTON      CLEAR     55  41  59 CALM      29.81F
MINOT          CLEAR     54  35  48 SE8       29.89F
MINOT AFB      CLEAR     50  38  62 SE10      29.89S
BISMARCK       CLEAR     52  35  52 E6        29.94S
DICKINSON      CLEAR     57  41  55 SE12      29.87F
GARRISON         N/A     51  39  63 SE7       29.91S
HETTINGER ARPT CLEAR     56  40  55 E9        29.91S
JAMESTOWN      CLEAR     52  41  66 SE10      29.99S
BEACH            N/A     54  41  62 SE12      29.87S
CARRINGTON     FAIR      50  37  62 SE9       30.00R
CROSBY         FAIR      59  41  51 S16G23    29.81F
HARVEY         FAIR      52  34  50 SE8       29.95S
HAZEN          FAIR      57  36  44 SE6       29.91S
LINTON         FAIR      52  36  54 SE8       29.96S
MANDAN         FAIR      54  32  43 SE10      29.95S
OAKES            N/A     46  39  76 E10       30.02R
RUGBY          FAIR      50  37  62 SE8       29.95R
STANLEY        FAIR      54  43  66 S7        29.87F
TIOGA          FAIR      59  41  51 S17       29.87F
$$

CITY           SKY/WX    TMP DP  RH WIND       PRES   REMARKS
GRAND FORKS    CLEAR     46  39  76 SE8       30.03S
GRAND FORKS AF CLEAR     46  41  84 SE6       30.03S
DEVILS LAKE    CLEAR     52  39  62 SE9       29.97S
FARGO          CLEAR     48  39  71 E5        30.03S
CANDO          FAIR      46  39  76 SE10      29.97S
CAVALIER       FAIR      48  39  71 SE5       30.03R
GRAFTON        FAIR      45  37  76 SE8       30.03S
GWINNER        CLEAR     50  39  66 SE5       30.04R
LANGDON        FAIR      46  39  76 SE13      30.00S
ROLLA          FAIR      50  37  62 S13       29.97S
WALHALLA       FAIR      45  45 100 SE8       30.02S
$$

CITY           SKY/WX    TMP DP  RH WIND       PRES   REMARKS
ABERDEEN       CLEAR     44  34  67 SE5       30.01S
MOBRIDGE       CLEAR     61  33  35 SE15      29.92F
BUFFALO          N/A     59  41  51 E8        29.83F
RAPID CITY     CLEAR     56  44  64 CALM      29.91S
GLASGOW        CLEAR     55  39  54 E13       29.75S
SIDNEY         CLEAR     48  39  71 CALM      29.82S
WOLF POINT     CLEAR     53  41  63 N3        29.77S
GLENDIVE       CLEAR     63  41  45 S9        29.83F
MILES CITY     CLEAR     65  37  35 SE7       29.81F
BAKER          CLEAR     51  41  68 SE10      29.87F
$$

CITY           SKY/WX    TMP DP  RH WIND       PRES   REMARKS
BILLINGS       CLEAR     69  29  22 SE8       29.83F
GREAT FALLS    CLEAR     62  33  33 S9        29.74S
REGINA         CLEAR     54  43  66 SE10      29.76S
$$




USA.gov is the U.S. government's official web portal to all federal, state and local government web resources and services.